Location: Baili�vre
(50.0696°N, 4.2409°E)
Time: 06:32:38
(UTC+00:00)

NOSS 3-2 (A) - Pass Details

Date: 08 August 2020
Orbit: 795 x 1413 km, 63.4° (Epoch: 19 September)

Event Time Altitude Azimuth Distance (km) Brightness Sun altitude
Rises 21:24:49 0° 207° (SSW) 3,356 6.1 -16.9°
Reaches altitude 10° 21:27:09 10° 204° (SSW) 2,472 5.3 -17.1°
Maximum altitude 21:32:45 61° 125° (SE) 1,041 3.4 -17.7°
Drops below altitude 10° 21:39:12 10° 47° (NE) 2,838 6.0 -18.2°
Sets 21:42:03 0° 44° (NE) 3,893 6.8 -18.5°
